GW2923 Weather Reports


Display with metric or nautical units.
time (UTC)temp
F
wind
direction
speed
MPH
gust
MPH
rain 1hr
in
rain 24hr
in
rain mn
in
humidity
%
barometer
mb
20260831045033 58 138 2.0 4.0 0.00 0.37 0.02 95 1003.2
20260831044553 58 99 1.0 4.0 0.00 0.37 0.02 94 1003.3
20260831044034 58 145 1.0 4.0 0.00 0.37 0.02 94 1003.3
20260831043530 58 107 1.0 4.0 0.00 0.37 0.02 94 1003.4
20260831043050 58 91 0.0 4.0 0.00 0.37 0.02 94 1003.4
20260831042531 58 0 1.0 5.0 0.00 0.37 0.02 94 1003.4
20260831042036 58 95 1.0 5.0 0.00 0.37 0.02 94 1003.5
20260831041608 58 102 2.0 6.0 0.00 0.37 0.02 94 1003.5
20260831041033 58 96 2.0 6.0 0.00 0.37 0.02 94 1003.5
20260831040531 58 97 1.0 5.0 0.00 0.37 0.02 94 1003.6
20260831040043 58 130 2.0 5.0 0.00 0.36 0.01 94 1003.5
20260831035529 58 139 2.0 6.0 0.00 0.36 0.01 94 1003.6
20260831035032 58 91 2.0 6.0 0.00 0.36 0.01 94 1003.6
20260831034555 58 107 2.0 7.0 0.00 0.36 0.01 94 1003.6
20260831034033 58 0 2.0 8.0 0.00 0.36 0.01 94 1003.7
20260831033534 58 151 3.0 8.0 0.00 0.36 0.01 94 1003.7
20260831033109 58 97 2.0 8.0 0.00 0.36 0.01 94 1003.7
20260831032533 58 127 3.0 8.0 0.00 0.36 0.01 94 1003.7
20260831032035 58 76 3.0 7.0 0.00 0.36 0.01 94 1003.7
20260831031553 58 156 4.0 7.0 0.00 0.36 0.01 94 1003.8
20260831031031 58 117 4.0 8.0 0.00 0.36 0.01 94 1003.8
20260831030531 58 128 2.0 8.0 0.00 0.36 0.01 94 1003.9
20260831030049 58 118 3.0 7.0 0.00 0.36 0.01 94 1003.9
20260831025533 58 124 3.0 7.0 0.00 0.37 0.01 94 1004.0
20260831025033 58 154 3.0 7.0 0.00 0.37 0.01 94 1003.9
20260831024553 58 152 3.0 8.0 0.00 0.37 0.01 94 1003.9
20260831024032 58 177 2.0 10.0 0.00 0.37 0.01 94 1004.0
20260831023534 58 155 4.0 10.0 0.00 0.37 0.01 94 1004.0
20260831023053 58 143 3.0 9.0 0.00 0.37 0.01 94 1004.0
20260831022531 58 139 3.0 9.0 0.00 0.37 0.01 94 1004.0
20260831022033 58 179 3.0 9.0 0.01 0.37 0.01 94 1004.0
20260831021548 58 159 2.0 8.0 0.00 0.36 0.00 94 1004.0
20260831021033 58 149 3.0 7.0 0.00 0.36 0.00 94 1004.1
20260831020534 58 100 2.0 5.0 0.00 0.36 0.00 94 1004.1
20260831020044 58 138 2.0 4.0 0.00 0.36 0.00 94 1004.2
20260831015536 58 134 1.0 5.0 0.00 0.36 0.00 94 1004.2
20260831015032 58 146 1.0 5.0 0.00 0.36 0.00 94 1004.2
20260831014542 58 139 0.0 4.0 0.00 0.36 0.00 94 1004.2
20260831014032 58 139 1.0 4.0 0.00 0.36 0.00 94 1004.2
20260831013533 58 155 0.0 5.0 0.00 0.36 0.00 93 1004.3
20260831013056 58 216 2.0 6.0 0.00 0.36 0.00 93 1004.3
20260831012531 58 145 1.0 7.0 0.00 0.36 0.00 93 1004.4
20260831012031 58 157 1.0 7.0 0.00 0.35 0.00 93 1004.4
20260831011547 58 141 2.0 7.0 0.00 0.35 0.00 93 1004.3
20260831011029 58 152 2.0 8.0 0.00 0.35 0.00 93 1004.4
20260831010529 58 173 1.0 9.0 0.00 0.35 0.00 93 1004.5
20260831010058 58 171 3.0 9.0 0.00 0.35 0.00 93 1004.5
20260831005531 58 153 2.0 7.0 0.00 0.40 0.00 93 1004.5
20260831005030 58 140 3.0 9.0 0.00 0.40 0.00 93 1004.5
20260831004553 58 153 3.0 9.0 0.00 0.40 0.00 93 1004.6
20260831004030 58 197 3.0 9.0 0.00 0.40 0.00 93 1004.7
20260831003535 58 170 3.0 10.0 0.00 0.40 0.00 93 1004.8
20260831003103 58 211 4.0 10.0 0.00 0.40 0.00 93 1004.7
20260831002530 58 183 3.0 9.0 0.00 0.40 0.00 93 1004.7
20260831002033 58 167 3.0 9.0 0.00 0.40 0.00 93 1004.8
20260831001550 58 182 4.0 9.0 0.00 0.40 0.00 93 1004.7
20260831001030 58 141 3.0 9.0 0.00 0.40 0.00 93 1004.8
20260831000530 58 169 3.0 8.0 0.00 0.40 0.00 93 1004.8
20260831000044 58 201 3.0 8.0 0.00 0.40 0.00 94 1004.9
20260830235530 57 164 3.0 10.0 0.00 0.44 0.00 93 1004.9
20260830235033 57 180 4.0 10.0 0.00 0.44 0.00 94 1004.9
20260830234552 57 209 5.0 10.0 0.00 0.44 0.00 94 1005.0
20260830234032 57 193 4.0 9.0 0.00 0.44 0.00 94 1004.9
20260830233536 57 139 4.0 11.0 0.00 0.44 0.00 94 1005.0
20260830233049 57 208 4.0 11.0 0.00 0.44 0.00 94 1005.0
20260830232533 57 193 3.0 10.0 0.00 0.44 0.00 94 1005.1
20260830232030 57 185 2.0 11.0 0.00 0.44 0.00 93 1005.0
20260830231602 57 0 3.0 11.0 0.00 0.44 0.00 94 1005.0
20260830231033 57 174 3.0 11.0 0.00 0.44 0.00 93 1005.0
20260830230533 57 189 4.0 11.0 0.00 0.44 0.00 93 1004.8
20260830230053 57 185 3.0 9.0 0.00 0.44 0.00 93 1004.9
20260830225531 57 176 2.0 9.0 0.00 0.44 0.00 93 1004.9
20260830225031 57 182 3.0 9.0 0.00 0.44 0.00 93 1004.9
20260830224555 57 160 3.0 10.0 0.00 0.44 0.00 93 1005.0
20260830224039 57 198 3.0 11.0 0.00 0.44 0.00 93 1005.0
20260830223532 57 174 3.0 11.0 0.00 0.44 0.00 93 1005.0
20260830223047 57 190 3.0 9.0 0.00 0.44 0.00 93 1005.0
20260830222532 57 201 3.0 8.0 0.00 0.44 0.00 93 1005.0
20260830222039 57 190 3.0 8.0 0.00 0.44 0.00 93 1005.1
20260830221542 57 182 2.0 7.0 0.00 0.44 0.00 92 1005.0
20260830221032 57 184 3.0 7.0 0.00 0.44 0.00 92 1005.1
20260830220532 57 166 2.0 8.0 0.00 0.44 0.00 92 1005.0
20260830220056 57 201 2.0 9.0 0.00 0.44 0.00 92 1005.1
20260830215536 57 194 3.0 9.0 0.00 0.44 0.00 92 1005.0
20260830215032 57 174 2.0 10.0 0.00 0.44 0.00 91 1005.1
20260830214548 57 170 3.0 10.0 0.00 0.44 0.00 91 1005.0
20260830214033 58 190 3.0 9.0 0.00 0.44 0.00 91 1005.1
20260830213534 58 197 3.0 10.0 0.00 0.44 0.00 91 1005.1
20260830213043 58 207 4.0 10.0 0.00 0.44 0.00 91 1005.1
20260830212530 58 195 3.0 9.0 0.00 0.44 0.00 91 1005.2
20260830212030 58 173 3.0 9.0 0.00 0.44 0.00 91 1005.2
20260830211551 58 170 3.0 9.0 0.00 0.44 0.00 92 1005.2
20260830211035 58 199 3.0 10.0 0.00 0.44 0.00 92 1005.2
20260830210533 58 189 4.0 10.0 0.00 0.44 0.00 92 1005.2
20260830210100 58 172 2.0 6.0 0.00 0.44 0.00 91 1005.3
20260830205534 58 176 2.0 8.0 0.00 0.44 0.44 91 1005.2
20260830205034 58 187 2.0 8.0 0.00 0.44 0.44 91 1005.3
20260830204548 58 178 2.0 11.0 0.00 0.44 0.44 91 1005.2
20260830204034 58 178 5.0 11.0 0.00 0.44 0.44 91 1005.2
20260830203533 58 184 4.0 11.0 0.00 0.44 0.44 90 1005.2
20260830203043 59 175 3.0 9.0 0.00 0.44 0.44 90 1005.2
20260830202530 59 184 3.0 9.0 0.00 0.44 0.44 90 1005.2
20260830202033 59 203 3.0 9.0 0.00 0.44 0.44 89 1005.2
20260830201556 59 158 4.0 9.0 0.00 0.44 0.44 89 1005.1
20260830201032 59 174 3.0 9.0 0.00 0.44 0.44 89 1005.1
20260830200530 59 184 2.0 10.0 0.00 0.44 0.44 89 1005.1
20260830200105 60 174 3.0 10.0 0.00 0.44 0.44 89 1005.1
20260830195532 60 182 4.0 10.0 0.00 0.45 0.44 89 1005.1
20260830195032 60 210 4.0 8.0 0.00 0.45 0.44 89 1005.0
20260830194613 60 189 2.0 10.0 0.00 0.45 0.44 89 1005.1
20260830194033 60 187 4.0 10.0 0.00 0.45 0.44 89 1005.1
20260830193533 60 147 3.0 10.0 0.00 0.45 0.44 89 1005.0
20260830193045 60 205 3.0 9.0 0.00 0.45 0.44 89 1005.0
20260830192529 60 184 3.0 8.0 0.00 0.45 0.44 89 1005.0
20260830192032 60 192 2.0 10.0 0.00 0.45 0.44 89 1005.0
20260830191559 60 189 5.0 10.0 0.00 0.45 0.44 90 1005.0
20260830191032 59 158 2.0 7.0 0.00 0.45 0.44 90 1005.0
20260830190534 59 174 2.0 7.0 0.00 0.45 0.44 90 1004.9
20260830190054 59 178 3.0 6.0 0.00 0.45 0.44 90 1005.0
20260830185533 59 173 2.0 6.0 0.00 0.45 0.44 90 1005.0
20260830185035 59 202 1.0 5.0 0.00 0.45 0.44 90 1005.0
20260830184550 59 198 2.0 6.0 0.00 0.45 0.44 90 1005.0
20260830184029 59 163 2.0 6.0 0.00 0.45 0.44 90 1005.0
20260830183532 59 183 2.0 5.0 0.00 0.45 0.44 90 1005.1
20260830183045 59 189 1.0 5.0 0.00 0.45 0.44 90 1005.0
20260830182533 59 172 1.0 4.0 0.00 0.45 0.44 90 1005.0
20260830182030 59 205 1.0 4.0 0.00 0.45 0.44 89 1005.1
20260830181553 60 172 1.0 4.0 0.00 0.45 0.44 89 1005.0
20260830181034 60 0 0.0 2.0 0.00 0.45 0.44 89 1005.1
20260830180533 60 0 0.0 4.0 0.00 0.45 0.44 88 1005.0
20260830180056 60 0 1.0 6.0 0.00 0.45 0.44 88 1005.1
20260830175532 60 193 1.0 6.0 0.00 0.47 0.44 88 1005.1
20260830175033 60 209 1.0 6.0 0.00 0.47 0.44 88 1005.1
20260830174554 60 216 0.0 2.0 0.00 0.47 0.44 88 1005.0
20260830174032 61 0 0.0 2.0 0.00 0.47 0.44 87 1005.0
20260830173530 61 189 0.0 4.0 0.00 0.47 0.44 87 1005.0
20260830173113 61 0 0.0 5.0 0.00 0.47 0.44 87 1005.1
20260830172534 61 186 1.0 6.0 0.00 0.47 0.44 86 1005.0
20260830172032 61 195 1.0 7.0 0.00 0.47 0.44 86 1005.0
20260830171555 61 230 1.0 7.0 0.00 0.47 0.44 86 1004.9
20260830171031 60 226 1.0 5.0 0.00 0.47 0.44 86 1004.9
20260830170535 60 218 0.0 5.0 0.00 0.47 0.44 85 1004.9
20260830170056 61 205 1.0 5.0 0.00 0.47 0.44 85 1004.8
20260830165534 61 219 2.0 7.0 0.00 0.47 0.44 84 1004.8
20260830165033 62 216 3.0 8.0 0.00 0.47 0.44 84 1004.7
20260830164549 62 232 2.0 8.0 0.00 0.47 0.44 83 1004.7
20260830164030 62 249 3.0 10.0 0.00 0.47 0.44 83 1004.7
20260830163533 62 231 3.0 10.0 0.00 0.47 0.44 83 1004.7
20260830163059 62 258 3.0 10.0 0.00 0.47 0.44 82 1004.6
20260830162534 62 234 2.0 8.0 0.00 0.47 0.44 83 1004.7
20260830162032 62 227 4.0 10.0 0.00 0.47 0.44 82 1004.7
20260830161621 62 238 4.0 11.0 0.00 0.47 0.44 82 1004.7
20260830161031 62 249 5.0 11.0 0.00 0.47 0.44 81 1004.7
20260830160532 63 245 4.0 10.0 0.00 0.47 0.44 81 1004.7
20260830160052 63 228 3.0 10.0 0.00 0.47 0.44 81 1004.6
20260830155532 63 254 5.0 11.0 0.00 0.47 0.44 81 1004.6
20260830155032 63 279 3.0 11.0 0.00 0.47 0.44 81 1004.8
20260830154547 63 226 6.0 11.0 0.00 0.47 0.44 79 1004.8
20260830154034 63 234 6.0 11.0 0.00 0.47 0.44 79 1004.8
20260830153532 63 207 6.0 12.0 0.00 0.47 0.44 80 1004.7
20260830153049 63 207 5.0 12.0 0.00 0.47 0.44 80 1004.7
20260830152532 63 194 4.0 11.0 0.00 0.47 0.44 81 1004.8
20260830152032 63 220 4.0 12.0 0.00 0.47 0.44 81 1004.9
20260830151548 63 195 5.0 15.0 0.00 0.47 0.44 81 1004.7
20260830151034 63 230 8.0 16.0 0.00 0.47 0.44 80 1004.8
20260830150534 63 236 6.0 16.0 0.00 0.47 0.44 81 1004.8
20260830150110 63 215 5.0 15.0 0.00 0.47 0.44 81 1004.7
20260830145530 63 227 6.0 15.0 0.00 0.47 0.44 80 1004.8
20260830145034 64 188 7.0 15.0 0.00 0.47 0.44 79 1004.7
20260830144555 64 274 7.0 14.0 0.00 0.47 0.44 79 1004.7
20260830144030 64 210 5.0 15.0 0.00 0.47 0.44 78 1004.6
20260830143533 64 225 7.0 15.0 0.00 0.47 0.44 79 1004.6
20260830143053 64 236 7.0 16.0 0.00 0.47 0.44 79 1004.6
20260830142533 64 212 8.0 16.0 0.00 0.47 0.44 79 1004.7
20260830142033 64 184 8.0 14.0 0.00 0.47 0.44 81 1004.5
20260830141547 64 215 4.0 11.0 0.00 0.47 0.44 82 1004.6
20260830141032 64 195 2.0 11.0 0.00 0.47 0.44 84 1004.7
20260830140535 64 216 4.0 13.0 0.00 0.47 0.44 83 1004.7
20260830140048 65 257 5.0 13.0 0.00 0.47 0.44 83 1004.7
20260830135533 64 206 6.0 12.0 0.00 0.47 0.44 82 1004.6
20260830135030 64 240 6.0 13.0 0.00 0.47 0.44 83 1004.7
20260830134553 63 255 7.0 14.0 0.00 0.47 0.44 84 1004.8
20260830134034 64 195 6.0 15.0 0.00 0.47 0.44 83 1004.7
20260830133534 64 231 7.0 15.0 0.00 0.47 0.44 83 1004.6
20260830133053 64 235 6.0 14.0 0.00 0.47 0.44 83 1004.6
20260830132534 64 259 5.0 15.0 0.00 0.47 0.44 85 1004.5
20260830132031 64 201 5.0 18.0 0.00 0.47 0.44 83 1004.5
20260830131603 64 211 5.0 18.0 0.00 0.47 0.44 84 1004.4
20260830131033 64 232 6.0 14.0 0.00 0.47 0.44 84 1004.4
20260830130534 64 210 7.0 14.0 0.00 0.47 0.44 85 1004.4
20260830130046 64 257 6.0 11.0 0.00 0.47 0.44 84 1004.3
20260830125529 64 209 3.0 15.0 0.00 0.47 0.44 86 1004.3
20260830125030 63 201 4.0 15.0 0.00 0.47 0.44 85 1004.3
20260830124543 64 215 7.0 15.0 0.00 0.47 0.44 84 1004.3
20260830124035 64 230 8.0 15.0 0.00 0.47 0.44 83 1004.3
20260830123533 65 229 5.0 13.0 0.00 0.47 0.44 87 1004.3
20260830123050 64 222 6.0 17.0 0.00 0.47 0.44 87 1004.3
20260830122533 63 226 7.0 17.0 0.00 0.47 0.44 85 1004.3
20260830122034 64 233 9.0 16.0 0.00 0.47 0.44 86 1004.3
20260830121547 64 173 8.0 16.0 0.00 0.47 0.44 84 1004.3
20260830121033 64 220 9.0 16.0 0.00 0.47 0.44 86 1004.3
20260830120533 64 211 7.0 18.0 0.00 0.47 0.44 86 1004.2
20260830120055 63 202 6.0 18.0 0.00 0.47 0.44 89 1004.2
20260830115531 63 225 5.0 12.0 0.00 0.47 0.44 89 1004.2
20260830115033 64 236 3.0 13.0 0.00 0.47 0.44 88 1004.2
20260830114552 64 217 4.0 13.0 0.00 0.47 0.44 89 1004.3
20260830114031 63 186 2.0 8.0 0.00 0.47 0.44 92 1004.2
20260830113530 63 202 3.0 8.0 0.00 0.47 0.44 91 1004.3
20260830113046 63 139 1.0 9.0 0.02 0.47 0.44 91 1004.1
20260830112531 63 189 5.0 9.0 0.16 0.47 0.44 90 1004.2
20260830112034 63 207 3.0 9.0 0.22 0.47 0.44 91 1004.2
20260830111551 64 168 2.0 9.0 0.28 0.47 0.44 91 1004.3
20260830111033 63 198 3.0 15.0 0.29 0.47 0.44 91 1004.3
20260830110532 63 228 3.0 16.0 0.31 0.47 0.44 92 1004.3
20260830110051 63 177 5.0 16.0 0.33 0.47 0.44 91 1004.3
20260830105532 63 208 4.0 10.0 0.33 0.47 0.44 91 1004.3
20260830105032 63 184 4.0 11.0 0.33 0.47 0.44 92 1004.3
20260830104554 62 219 6.0 11.0 0.33 0.47 0.44 92 1004.3
20260830104032 62 226 2.0 15.0 0.33 0.47 0.44 92 1004.3
20260830103532 61 197 6.0 15.0 0.33 0.47 0.44 92 1004.4
20260830103045 61 241 5.0 10.0 0.30 0.44 0.42 92 1004.3
20260830102532 62 215 1.0 7.0 0.14 0.29 0.26 92 1004.3
20260830102032 62 232 3.0 7.0 0.10 0.24 0.22 92 1004.3
20260830101555 62 0 2.0 11.0 0.04 0.18 0.16 92 1004.3
20260830101033 62 226 3.0 11.0 0.03 0.17 0.14 91 1004.4
20260830100531 62 184 5.0 14.0 0.01 0.15 0.13 90 1004.3
20260830100054 63 199 6.0 16.0 0.00 0.14 0.11 88 1004.4
20260830095533 63 211 5.0 16.0 0.00 0.14 0.11 88 1004.3
20260830095033 64 188 4.0 11.0 0.00 0.14 0.11 88 1004.3
20260830094549 63 193 5.0 11.0 0.00 0.14 0.11 89 1004.3
20260830094031 63 183 4.0 11.0 0.00 0.14 0.11 89 1004.3
20260830093532 63 189 3.0 9.0 0.00 0.14 0.11 89 1004.3
20260830093052 63 176 4.0 9.0 0.00 0.14 0.11 89 1004.3
20260830092529 63 195 3.0 11.0 0.00 0.14 0.11 90 1004.3
20260830092033 63 170 4.0 11.0 0.00 0.14 0.11 89 1004.4
20260830091554 63 134 5.0 11.0 0.00 0.14 0.11 89 1004.3
20260830091036 62 211 4.0 14.0 0.00 0.14 0.11 90 1004.3
20260830090535 62 180 6.0 15.0 0.00 0.14 0.11 89 1004.4
20260830090053 63 187 6.0 15.0 0.00 0.14 0.11 88 1004.4
20260830085532 63 195 3.0 12.0 0.00 0.14 0.11 90 1004.3
20260830085031 62 234 3.0 13.0 0.00 0.14 0.11 90 1004.4
20260830084555 62 202 4.0 13.0 0.00 0.14 0.11 90 1004.4
20260830084034 62 172 4.0 10.0 0.00 0.14 0.11 91 1004.3
20260830083534 61 132 2.0 10.0 0.00 0.14 0.11 92 1004.3
20260830083056 61 189 4.0 10.0 0.00 0.14 0.11 91 1004.4
20260830082534 61 191 3.0 7.0 0.00 0.14 0.11 92 1004.3
20260830082033 61 206 3.0 10.0 0.00 0.14 0.11 92 1004.4
20260830081547 61 176 2.0 10.0 0.00 0.14 0.11 91 1004.4
20260830081034 61 184 3.0 11.0 0.00 0.14 0.11 92 1004.4
20260830080534 61 189 5.0 11.0 0.00 0.14 0.11 92 1004.4
20260830080059 61 184 5.0 11.0 0.00 0.14 0.11 92 1004.4
20260830075533 61 181 3.0 9.0 0.00 0.14 0.11 92 1004.4
20260830075034 61 203 3.0 10.0 0.00 0.14 0.11 93 1004.4
20260830074558 61 210 3.0 11.0 0.00 0.14 0.11 92 1004.4
20260830074033 60 224 3.0 11.0 0.00 0.14 0.11 92 1004.4
20260830073533 60 226 4.0 11.0 0.00 0.14 0.11 92 1004.4
20260830073056 60 199 4.0 11.0 0.00 0.14 0.11 92 1004.3
20260830072533 61 172 3.0 11.0 0.00 0.14 0.11 92 1004.3
20260830072032 61 177 5.0 11.0 0.00 0.14 0.11 92 1004.3
20260830071549 61 193 2.0 11.0 0.00 0.14 0.11 92 1004.3
20260830071035 61 187 4.0 10.0 0.00 0.14 0.11 92 1004.3
20260830070531 61 193 3.0 11.0 0.00 0.14 0.11 92 1004.3
20260830070045 60 174 4.0 11.0 0.00 0.14 0.11 92 1004.2
20260830065532 60 195 5.0 11.0 0.00 0.14 0.11 92 1004.2
20260830065033 60 241 4.0 11.0 0.00 0.14 0.11 92 1004.2
20260830064622 60 178 4.0 14.0 0.00 0.14 0.11 92 1004.2
20260830064032 60 182 6.0 14.0 0.00 0.14 0.11 92 1004.2
20260830063533 60 202 5.0 14.0 0.00 0.14 0.11 92 1004.0
20260830063052 60 159 3.0 13.0 0.00 0.14 0.11 93 1004.0
20260830062531 60 187 2.0 13.0 0.00 0.14 0.11 93 1004.0
20260830062031 60 245 3.0 11.0 0.00 0.14 0.11 93 1004.0
20260830061553 60 189 3.0 6.0 0.00 0.14 0.11 93 1004.0
20260830061032 60 189 2.0 6.0 0.00 0.14 0.11 93 1003.9
20260830060532 60 197 3.0 14.0 0.00 0.14 0.11 94 1003.9
20260830060047 60 163 3.0 14.0 0.00 0.14 0.11 94 1003.9
20260830055534 59 174 5.0 12.0 0.00 0.14 0.11 94 1003.9
20260830055032 59 194 4.0 12.0 0.00 0.14 0.11 94 1003.9
20260830054544 59 180 4.0 13.0 0.00 0.14 0.11 94 1003.9
20260830054031 59 193 5.0 16.0 0.00 0.14 0.11 94 1003.9
20260830053529 59 176 5.0 16.0 0.01 0.14 0.11 94 1004.0
20260830053050 59 190 5.0 14.0 0.01 0.14 0.11 94 1003.9
20260830052532 59 203 4.0 14.0 0.01 0.14 0.11 94 1003.9
20260830052033 58 181 4.0 13.0 0.01 0.14 0.11 94 1003.9
20260830051550 58 232 4.0 11.0 0.01 0.14 0.11 94 1003.8
20260830051031 58 0 4.0 11.0 0.01 0.14 0.11 94 1003.9
20260830050531 58 185 4.0 13.0 0.01 0.14 0.11 94 1003.8
20260830050045 58 168 5.0 13.0 0.01 0.14 0.11 94 1003.9
20260830045533 58 166 4.0 11.0 0.01 0.14 0.11 94 1003.8